Meteo Giornale » Osservazioni meteo Aruba » Queen Beatrix
ore: 14:00 - Osservazioni Meteo Queen Beatrix
Lat. 12° 30' N Lon. 70° 1' W Alt. 18 metri s.l.m.
32 °C
Molto Nuvoloso
Temp. 24 Ore
28 °C
33 °C
Est
33.3 Km/h
Dew point 25 °C
Umidità 66 %
Visibilità 10 Km
Il sole sorge alle ore 06:29
Il sole tramonta alle ore 18:50
| Data e Ora | Cielo e Fenomeni | T °C | DP °C | Um. % | Pres. hPa | Vis. km | Vento km/h | |
|---|---|---|---|---|---|---|---|---|
| Oggi h: 14:00 | Molto Nuvoloso | 32 | 25 | 66 | 1011 | 10 | E 33.3 | |
| Oggi h: 13:00 | Molto Nuvoloso | 32 | 25 | 66 | 1012 | 10 | E 31.5 | |
| Oggi h: 12:00 | Molto Nuvoloso | 32 | 24 | 62 | 1012 | 10 | E 35.2 | |
| Oggi h: 11:00 | Molto Nuvoloso | 32 | 24 | 62 | 1013 | 10 | E/SE 29.6 | |
| Oggi h: 10:00 | Molto Nuvoloso | 31 | 24 | 66 | 1013 | 10 | E/SE 31.5 | |
| Oggi h: 09:00 | Nuvoloso | 30 | 25 | 74 | 1012 | 10 | E 38.8 | |
| Oggi h: 08:04 | Poco Nuvoloso | 29 | 25 | 79 | 1012 | 10 | E/SE 31.5 | |
| Oggi h: 08:00 | Poco Nuvoloso | 29 | 25 | 79 | 1012 | 10 | E/SE 27.8 | |
| Oggi h: 07:00 | Poco Nuvoloso | 28 | 25 | 83 | 1011 | 10 | E/SE 22.2 | |
| Oggi h: 06:00 | Molto Nuvoloso | 28 | 25 | 83 | 1012 | 10 | E/SE 22.2 | |
| Oggi h: 05:00 | Nuvoloso | 28 | 25 | 83 | 1011 | 10 | E 20.3 | |
| Oggi h: 04:00 | Nuvoloso | 28 | 25 | 83 | 1011 | 10 | E 29.6 | |
| Oggi h: 03:00 | Molto Nuvoloso | 29 | 25 | 79 | 1011 | 10 | E/SE 31.5 | |
| Oggi h: 02:00 | Sereno | 28 | 25 | 83 | 1012 | 10 | E/SE 24 | |
| Oggi h: 01:38 | Sereno | 28 | 25 | 83 | 1012 | 10 | E/SE 25.9 | |
| Oggi h: 01:00 | Poco Nuvoloso | 28 | 25 | 83 | 1012 | 10 | E 33.3 | |
| Oggi h: 00:00 | Sereno | 29 | 25 | 79 | 1013 | 10 | E 37 | |
| Ieri h: 23:45 | Poco Nuvoloso | 29 | 25 | 79 | 1013 | 10 | E 37 | |
| Ieri h: 23:42 | Poco Nuvoloso | 29 | 25 | 79 | 1013 | 10 | E 35.2 | |
| Ieri h: 23:00 | Poco Nuvoloso | 29 | 25 | 79 | 1013 | 10 | E 38.8 | |
| Ieri h: 22:00 | Poco Nuvoloso | 29 | 25 | 79 | 1012 | 10 | E 40.7 | |
| Ieri h: 21:00 | Poco Nuvoloso | 29 | 25 | 79 | 1012 | 10 | E 38.8 | |
| Ieri h: 20:00 | Poco Nuvoloso | 29 | 25 | 79 | 1011 | 10 | E 40.7 | |
| Ieri h: 19:00 | Poco Nuvoloso | 29 | 25 | 79 | 1010 | 10 | E 38.8 | |
| Ieri h: 18:00 | Poco Nuvoloso | 30 | 26 | 79 | 1009 | 10 | E/NE 38.8 | |
| Ieri h: 17:00 | Poco Nuvoloso | 32 | 25 | 66 | 1009 | 10 | E 44.4 | |
| Ieri h: 16:00 | Poco Nuvoloso | 33 | 25 | 62 | 1009 | 10 | E 40.7 | |
| Ieri h: 15:00 | Poco Nuvoloso | 33 | 25 | 62 | 1010 | 10 | E/SE 37 | |



